FENGYUN 1C DEB

Satellite information

Favourite Embed

Satellite Type and Status

DEBRISIN ORBIT

Key statistics

Satellite FENGYUN 1C DEB at a glance.

Uptime

9715

Days in orbit

Revolutions

≈ 14.0

Per day

Orbit

SSO

Sun Synchronous Orbit

Inclination

98.6

Latest

Satellite identification and parameters

Extended collection of information and parameters for FENGYUN 1C DEB.

Object identification

Identified? True

Debris? True

Object name: FENGYUN 1C DEB

International designator: 1999-025JB

Object number (NORAD): 29929

Object ID (CCSDS): 29929

Country: PEOPLES REPUBLIC OF CHINA (PRC)

Current information (Y/N): Y

RCS size: SMALL

Orbital parameters

Period: 102.758 minutes

Inclination: 98.6237 deg

SMA: 7267.24 km

Apoapsis: 984.399 km

Periapsis: 793.811 km

RAAN: 265.0369 deg

Eccentricy: 0.01311281

Argument of periapsis: 179.0654 deg

Mean anomaly: 211.2035 deg

Mean motion: 14.01356088 rev/day

Mean motion (dot): 0.00002329 rev/day2

B* drag term: 0.0014583799 1/REarth

Two-line elements (TLE)

Creation date: Dec. 12, 2025, 3:16 a.m.

Reference frame: TEME

Reference center: EARTH

Epoch: Dec. 11, 2025, 5:42 p.m. UTC

TLE line 0: 0 FENGYUN 1C DEB

TLE line 1: 1 29929U 99025JB 25345.73795334 .00002329 00000-0 14584-2 0 9996

TLE line 2: 2 29929 98.6237 265.0369 0131128 179.0654 211.2035 14.01356088959426

Live tracking on map

Real-time ground track for satellite FENGYUN 1C DEB.

In-orbit conjunctions

A list of the most updated potential collisions computed for object FENGYUN 1C DEB.

Target Orbit TCA Probability of collision Miss distance Type
SL-8 R/B LEO 2024-12-31 18:18:17 0.0002550719 171.0 (m) ROCKET BODY
FENGYUN 1C DEB SSO 2024-11-11 08:19:37 0.0006471275 594.0 (m) DEBRIS

Associated space launch

Chinese polar orbiting meteorological satellite

FENGYUN 1C DEB was lifted into orbit during the mission ‘Long March 4B | Feng Yun 1C’, on board a Long March 4B space rocket.

The launch took place on May 10, 1999, 1:33 a.m. from Launch Complex 7.

For more information about the launch, click the button.

Launch to space Long March 4B | Feng Yun 1C
Long March 4B | Feng Yun 1C

Agency: N/A

Status: Launch Successful

Launch date: May 10, 1999, 1:33 a.m. UTC

Rocket: Long March 4B

Launch pad: Launch Complex 7

Location: Taiyuan Satellite Launch Center, People's Republic of China

...

Latest news about this satellite

There are no fresh news available about this satellite. Check back as we update our databases every day.


Newsletter sign-up

Weekly statistics, charts and insights to help you stay on top of the space industry.